Theta_e
312 312 312 312 313 314 315 319 318 314 314 313 312 312 310 310 310 310 310 311 312 313 314 314 314 314 314 314 314 315 316 317 317 318 322 323 324 324 324 320 314 314 316 315 316 317 317 318 319 318 318 318 318 320 322 325 326 330 336 334 333 334 334 333 333 333 334 333 331 331 331 332 332 332 331 331 332 332 332 332 332 332 331 332 332 332 331 332
313 312 312 312 313 314 315 318 318 313 312 311 312 312 310 310 310 310 310 311 312 313 314 314 314 314 314 315 315 315 316 316 317 319 322 323 325 324 322 318 315 317 318 317 318 318 318 319 319 319 319 318 319 321 325 328 327 332 339 335 332 333 331 330 331 330 330 331 331 331 331 332 332 332 331 331 332 332 332 332 332 332 332 332 332 332 332 332
313 312 312 312 313 314 315 318 318 313 310 311 312 311 310 310 310 311 310 311 312 313 314 314 314 314 315 315 315 315 316 317 318 320 323 323 324 320 316 316 317 320 319 319 320 319 320 320 320 320 320 319 322 325 325 328 328 329 334 334 332 330 329 329 329 329 330 331 331 331 331 332 332 332 332 331 331 331 331 332 332 332 332 332 332 332 331 331
313 312 312 312 313 314 314 317 318 313 310 311 312 312 311 311 310 311 311 312 313 313 314 314 314 314 315 314 315 315 316 321 321 321 324 323 319 316 316 318 319 320 320 320 320 320 320 320 321 320 320 320 324 328 326 327 328 328 331 333 330 328 328 329 329 330 331 332 332 332 331 331 331 331 331 331 331 331 331 331 332 332 332 332 331 331 331 331
313 312 312 312 313 314 314 317 318 314 311 311 311 311 311 311 311 311 311 312 313 314 314 315 315 314 315 315 315 315 317 323 322 321 323 319 315 317 319 319 319 319 320 320 320 320 321 323 323 322 323 323 326 327 327 328 328 329 329 329 328 328 329 328 330 331 331 331 331 331 331 331 331 331 331 330 331 332 331 332 332 332 332 331 330 330 330 331
313 312 312 312 312 314 315 317 318 314 311 311 311 311 311 311 311 311 312 313 314 314 314 315 315 315 315 315 316 316 318 321 321 320 319 314 315 319 319 319 319 320 320 320 320 320 322 324 325 325 325 325 326 327 327 328 328 329 329 328 328 328 328 329 330 330 330 330 331 331 331 332 331 331 331 330 330 331 332 332 332 332 331 331 330 328 329 330
313 313 312 312 312 314 315 317 318 314 311 311 311 311 311 311 311 312 313 314 315 314 315 315 315 315 315 315 316 316 318 321 321 318 314 313 317 320 319 319 319 319 319 319 320 320 322 325 326 326 326 325 326 326 327 328 327 329 329 328 328 328 328 328 329 330 330 331 331 331 331 331 331 331 331 331 331 330 331 331 332 332 331 331 330 329 329 329
313 313 312 312 312 315 316 317 318 314 311 311 311 311 311 311 312 313 314 315 315 315 315 315 316 316 315 315 316 318 320 319 317 315 314 315 317 319 319 319 319 319 319 319 321 321 321 325 326 326 327 326 326 327 327 327 327 328 328 327 328 328 328 328 330 330 330 331 330 330 331 331 331 331 331 331 331 330 330 331 331 332 331 331 330 330 331 330
313 313 312 312 312 315 317 318 319 315 312 312 311 311 311 312 313 315 315 315 315 315 315 315 316 315 315 315 317 321 320 315 315 315 316 316 317 318 318 318 319 319 320 320 321 320 321 324 326 327 328 326 327 327 326 328 328 327 327 327 327 327 328 329 329 330 330 330 329 330 330 331 331 331 330 330 330 330 331 331 331 331 331 331 331 331 331 331
313 313 312 312 312 315 318 319 319 315 312 312 312 312 313 314 315 315 315 315 315 315 315 315 316 315 316 315 317 321 319 315 316 317 317 318 317 317 318 318 319 320 320 322 323 323 323 325 326 326 327 326 326 325 326 327 327 328 327 327 327 328 329 329 329 329 330 329 329 330 330 330 330 331 331 330 330 331 331 331 330 330 330 331 331 331 331 332
312 313 313 312 312 316 318 320 319 315 312 312 312 313 314 315 316 315 315 315 315 315 316 316 316 315 316 316 317 320 318 316 317 317 318 318 318 318 318 319 320 320 321 323 325 325 325 325 326 327 326 326 326 326 326 327 327 327 327 327 326 327 328 329 329 329 329 330 329 330 330 330 331 331 330 329 330 330 331 331 330 330 330 330 331 331 331 331
312 313 313 312 312 316 319 320 318 315 313 312 314 315 315 316 315 315 315 315 316 317 317 317 317 316 316 317 319 320 318 317 318 318 318 318 318 318 318 319 320 320 321 325 326 325 326 325 326 326 327 326 326 327 326 327 327 327 328 329 328 330 329 327 330 329 329 330 329 329 331 331 331 331 329 329 330 330 331 331 330 330 330 330 330 330 330 330
312 312 313 312 312 315 319 320 318 315 313 314 315 316 316 316 315 315 316 316 317 318 318 318 317 316 317 319 320 319 318 318 319 319 319 319 318 319 320 320 321 320 321 325 326 325 326 325 325 326 327 326 327 327 327 326 327 327 328 330 334 337 332 327 328 329 328 329 328 328 333 332 331 330 329 330 330 331 331 331 330 329 330 330 330 330 330 330
312 312 313 312 312 315 319 321 318 315 315 315 316 316 316 315 316 316 317 318 318 318 318 317 317 318 319 320 320 319 319 318 319 320 320 319 320 321 321 321 323 323 323 325 326 326 326 325 325 326 327 327 327 326 327 328 328 330 329 331 337 336 330 328 327 328 328 328 327 329 333 332 330 328 330 331 330 331 331 331 330 329 329 330 329 330 330 330
312 312 313 312 312 315 319 321 317 315 315 316 316 316 316 316 317 317 318 318 318 318 317 316 318 319 320 320 320 320 320 319 319 320 320 320 321 321 322 323 325 325 325 325 325 326 326 326 326 327 327 326 327 328 332 334 334 335 334 333 338 334 329 329 327 327 330 328 327 331 333 331 330 328 329 331 329 330 331 330 331 330 329 329 329 330 330 330
313 312 312 313 312 314 319 321 317 315 316 316 317 317 317 317 318 318 318 318 319 318 317 319 319 319 321 320 319 320 319 319 320 320 320 321 321 321 322 324 325 326 325 325 325 326 325 325 326 325 326 327 329 331 335 338 335 335 336 335 335 334 331 331 328 326 328 328 327 331 333 331 329 328 329 330 329 330 331 329 330 330 330 330 330 330 330 330
314 312 312 313 312 314 318 321 318 315 316 317 317 317 318 318 319 319 318 318 319 318 317 319 319 320 322 319 318 320 319 319 320 320 320 321 321 321 323 325 325 325 325 326 325 325 326 326 327 327 329 332 335 337 335 334 333 332 336 338 334 331 331 332 331 328 327 329 329 329 331 331 330 328 329 331 330 330 330 329 330 330 330 330 330 330 330 330
316 313 312 312 312 313 317 320 319 316 316 317 317 320 322 322 323 320 318 319 318 317 318 318 320 323 321 317 319 320 319 320 320 321 320 321 321 321 324 325 325 325 325 326 324 326 326 325 328 333 335 335 340 343 337 334 334 331 334 336 332 331 331 331 332 330 328 329 330 330 331 331 330 328 329 330 331 330 330 330 330 330 330 329 329 329 330 331
317 315 312 312 312 312 316 320 319 318 317 317 319 322 324 324 324 322 321 322 321 320 321 319 322 325 321 318 320 320 320 320 320 321 320 321 321 321 325 326 325 325 325 326 327 325 326 329 332 335 334 332 336 340 337 334 334 332 332 332 330 331 331 330 331 330 328 330 330 331 332 331 330 329 328 329 330 329 330 330 330 329 329 330 330 330 330 331
314 317 314 312 313 312 316 320 320 319 317 319 322 324 324 323 325 326 323 323 323 323 323 322 322 322 320 320 320 319 320 320 320 320 320 321 322 322 325 325 325 326 326 330 330 323 329 337 335 333 331 330 331 333 334 333 331 331 330 329 330 330 330 329 329 328 328 332 331 330 331 330 330 330 329 329 330 329 330 329 329 329 329 330 331 331 331 331
310 315 315 313 312 313 316 320 320 319 320 321 322 323 323 324 325 327 325 323 322 321 322 323 323 322 322 322 320 319 320 320 319 320 321 322 324 324 324 325 327 329 327 328 329 326 335 338 332 331 331 328 330 332 334 334 333 333 330 329 330 330 330 329 329 328 329 333 332 329 331 331 331 331 329 329 329 329 330 330 329 330 331 331 332 331 331 331
307 312 316 313 312 313 315 319 320 320 321 322 321 321 324 325 325 325 325 325 322 319 321 322 324 324 323 323 321 319 319 319 319 320 323 323 324 325 324 326 330 330 325 324 329 334 336 332 328 330 328 326 329 331 334 333 333 336 332 330 332 330 330 331 330 329 329 332 331 330 331 331 330 330 329 328 329 329 330 330 330 330 331 331 331 331 331 330
307 308 314 315 313 312 314 319 320 320 321 321 320 320 322 323 324 324 323 326 326 322 323 324 324 324 323 322 320 320 319 319 319 320 324 324 323 324 324 326 330 328 324 325 332 334 329 326 327 327 326 328 329 330 333 333 333 336 333 330 331 331 331 332 331 329 330 331 330 329 331 333 332 331 329 328 329 330 330 330 330 330 330 330 330 330 329 329
309 306 310 315 313 311 314 318 319 319 320 321 320 320 322 322 324 325 324 327 328 325 323 323 324 324 323 321 319 320 320 319 319 321 323 323 322 324 323 325 327 326 325 327 331 331 327 325 326 325 326 329 329 330 334 335 334 333 333 332 330 330 331 330 330 330 331 329 328 331 334 334 334 333 331 330 329 330 330 330 330 330 330 331 330 330 330 330
310 305 308 313 315 312 313 317 318 319 320 321 321 320 322 322 323 326 326 328 329 327 323 322 322 322 320 320 320 319 319 320 320 321 322 323 323 323 324 323 324 325 326 325 328 330 327 325 325 327 328 327 328 331 332 334 337 332 332 335 331 329 330 329 330 332 334 332 329 333 337 335 334 334 334 333 330 329 330 331 331 331 331 331 331 331 332 331
310 305 306 310 315 313 313 317 317 317 320 320 320 321 322 321 322 325 329 333 332 327 324 322 320 320 320 320 320 319 320 320 320 321 322 323 323 323 324 323 323 325 325 322 324 328 327 324 326 327 328 327 327 329 329 331 337 334 331 334 333 330 330 329 330 333 336 334 330 333 337 335 333 334 335 335 331 329 330 331 331 331 331 331 331 332 331 330
311 305 305 308 314 314 313 316 314 315 320 320 320 322 321 321 322 323 328 334 335 327 320 321 319 319 320 319 319 321 321 321 320 321 322 323 322 321 323 323 322 323 323 323 324 325 325 324 325 326 327 327 328 328 327 328 334 333 329 331 335 334 330 327 330 335 337 336 334 335 336 336 334 334 335 334 331 330 331 331 331 331 331 331 331 331 330 329
312 305 305 306 310 315 314 313 313 314 319 321 320 321 321 322 321 325 332 330 329 323 317 319 319 319 320 319 319 320 321 320 319 320 321 322 322 321 321 322 323 322 321 324 324 323 324 326 326 327 326 327 328 327 326 327 330 330 328 331 334 332 330 330 330 333 336 337 336 334 335 338 336 334 333 332 331 330 332 331 330 331 331 331 331 330 329 328
313 305 305 305 308 315 314 313 313 315 318 319 318 320 321 319 319 329 337 330 322 318 318 318 319 319 319 319 319 319 320 319 319 320 321 322 322 320 321 321 321 321 320 322 326 324 323 325 325 326 327 326 326 326 325 327 328 328 327 329 331 330 331 335 334 333 337 340 336 331 334 339 336 333 332 332 331 331 332 331 329 330 331 331 331 330 329 329
314 305 304 305 306 312 315 314 313 317 319 316 317 320 317 321 329 330 329 328 321 318 318 317 319 319 318 319 319 319 318 318 319 319 319 320 321 320 321 321 319 322 322 321 324 325 323 324 325 325 326 325 325 325 325 326 327 327 329 332 336 338 340 343 342 337 335 338 337 331 332 337 337 334 333 332 332 331 331 331 329 329 330 331 331 330 329 329
313 305 304 305 305 309 314 313 313 318 319 317 319 318 315 327 339 332 326 326 323 321 318 317 318 318 319 319 320 320 318 318 319 318 319 320 320 320 320 321 324 325 323 320 321 323 323 324 324 323 324 324 325 327 326 326 326 327 331 333 336 339 340 342 342 337 333 336 338 331 329 335 337 335 331 331 331 329 330 331 330 329 330 330 330 329 329 328
310 304 304 304 304 307 312 314 315 316 316 319 318 316 325 332 330 331 332 327 324 325 320 318 318 318 319 319 319 320 318 318 319 318 321 320 320 323 320 324 329 323 319 320 319 321 323 325 324 322 324 325 326 327 326 326 327 327 329 331 333 334 333 335 336 334 334 336 333 329 330 334 338 338 331 329 329 328 329 330 329 329 329 330 330 329 328 328
307 305 305 304 304 307 312 316 316 313 314 318 314 318 335 335 329 333 333 326 328 327 319 318 319 318 319 318 318 319 317 319 320 319 320 320 321 323 320 323 327 324 325 326 321 321 321 321 322 322 324 326 326 327 326 327 328 327 326 328 334 336 332 330 331 330 332 335 331 331 333 332 334 335 330 328 328 328 329 330 329 329 329 329 329 328 328 328
305 305 304 305 305 306 314 317 314 314 314 314 317 325 329 329 334 336 330 330 332 325 319 320 319 318 319 319 319 319 318 319 320 319 319 320 320 322 322 320 319 325 336 331 324 326 324 321 324 321 322 326 326 326 326 327 327 326 326 326 330 337 335 331 334 335 333 334 333 332 331 332 336 335 330 328 327 327 329 329 330 330 329 328 328 328 328 327
305 305 304 305 305 307 315 316 314 315 313 313 325 332 325 325 334 335 331 335 330 323 324 321 317 318 318 319 320 318 318 320 320 319 320 321 323 325 325 323 319 323 334 332 326 326 321 321 327 320 320 326 326 325 325 325 326 326 326 326 327 334 337 332 333 337 335 334 335 334 332 335 338 333 328 328 327 328 329 328 328 329 327 328 328 328 328 327
305 305 305 305 306 310 315 316 315 314 312 317 326 328 326 329 335 333 330 330 325 323 325 321 318 317 316 319 320 317 318 320 321 321 320 321 325 326 325 325 322 321 333 341 333 325 318 321 328 321 320 325 324 324 325 324 327 327 325 327 329 328 333 333 330 333 337 336 333 335 334 333 334 331 328 328 329 328 327 326 327 328 327 328 328 328 328 327
305 305 305 306 307 312 317 319 319 314 313 321 327 329 330 330 328 327 325 323 322 324 323 323 321 317 316 317 319 320 318 318 321 321 321 323 324 325 323 323 321 319 328 333 329 328 327 326 330 325 319 322 324 324 324 324 326 327 324 327 329 323 327 338 335 332 336 336 333 335 335 332 334 334 330 329 331 329 327 326 327 328 328 328 328 328 327 326
305 305 306 308 309 312 320 324 320 315 318 329 335 335 333 328 323 323 322 321 323 323 323 324 323 321 320 317 318 321 317 318 324 325 324 323 323 325 324 323 323 320 321 322 323 332 333 326 329 329 319 319 324 323 322 323 323 324 324 325 329 327 325 330 332 331 332 332 333 335 334 333 334 334 331 329 331 329 327 327 327 327 328 328 328 327 326 326
304 304 308 317 316 314 322 325 319 317 324 334 337 334 329 326 323 321 320 321 322 323 327 328 326 325 324 323 324 321 316 320 325 325 325 323 325 327 323 322 324 320 320 323 327 334 338 329 326 328 323 320 322 325 326 326 322 322 324 323 330 338 332 328 330 333 334 334 334 333 334 336 336 332 330 329 329 329 327 327 327 327 328 328 328 327 326 325
303 305 312 322 321 317 322 324 320 321 328 333 333 330 325 323 321 319 320 321 321 324 329 329 327 325 325 327 328 321 319 321 322 325 327 325 327 327 322 322 324 322 321 322 327 334 336 330 326 330 330 322 320 326 330 329 324 323 327 324 325 331 329 327 329 331 336 337 335 335 337 340 338 330 328 329 328 328 327 327 327 327 328 329 327 326 325 324
303 309 316 323 323 318 320 323 323 325 328 329 327 325 322 321 320 320 319 319 320 322 324 326 326 327 326 326 327 324 322 322 322 326 327 324 324 325 325 324 321 325 327 326 332 334 330 334 336 332 327 324 326 330 330 328 327 330 334 333 332 330 326 327 328 330 337 338 335 337 339 342 340 330 326 328 326 326 327 326 327 327 328 328 326 325 324 322
305 310 316 322 322 320 322 325 323 322 326 326 323 322 321 320 320 320 319 319 321 322 323 325 327 327 326 328 328 328 329 327 323 324 326 325 325 327 327 323 320 326 332 331 330 327 331 346 343 327 325 328 328 326 323 323 327 329 330 333 334 333 334 337 334 332 333 331 332 336 338 343 341 330 326 327 325 326 327 326 327 328 327 327 325 324 323 321
305 307 313 319 320 320 324 325 322 321 323 323 321 319 319 319 319 320 319 320 323 326 325 325 326 326 326 328 326 326 330 329 323 323 325 325 325 325 324 322 323 326 330 332 329 326 333 343 335 331 343 346 335 332 330 330 330 326 327 334 332 332 341 346 345 342 334 329 333 334 335 343 341 329 325 326 325 327 327 327 328 327 327 327 325 324 322 320
303 304 308 316 320 322 325 328 329 328 324 320 318 318 318 318 318 318 320 322 325 328 326 325 325 325 325 326 326 328 329 326 324 324 324 324 324 323 322 322 324 325 327 331 331 327 328 332 335 336 341 341 334 335 337 337 339 334 332 335 330 330 336 334 337 345 338 329 334 336 336 345 343 330 327 326 325 326 326 327 328 327 327 326 324 322 321 319
308 311 310 312 318 320 324 330 331 331 328 322 321 322 319 318 318 317 319 323 323 325 327 326 324 324 325 325 325 329 329 328 330 329 325 324 324 322 321 322 323 325 327 326 326 330 330 338 349 344 335 333 332 333 335 335 337 336 333 333 329 328 335 330 330 342 339 328 332 339 341 342 337 331 329 327 326 327 327 326 327 326 325 324 322 321 320 318
314 320 319 318 319 319 322 326 325 328 330 326 327 330 324 321 322 319 320 324 323 324 326 325 324 324 325 326 325 328 329 329 330 328 326 326 325 323 322 324 325 325 327 324 321 334 343 343 352 353 344 342 343 345 343 334 329 329 330 332 330 330 338 338 333 338 340 332 332 339 340 336 333 331 329 328 328 327 326 325 325 324 323 322 321 319 318 318
313 321 323 325 327 325 325 326 324 327 328 325 328 332 327 325 325 323 324 327 327 326 326 325 324 323 326 329 327 327 326 327 327 326 326 326 325 325 321 324 329 325 326 325 320 342 356 340 337 347 345 340 342 343 338 329 326 330 330 330 332 334 338 338 334 336 337 332 332 338 340 336 334 332 329 328 329 327 325 325 324 323 322 320 320 319 318 318
311 317 319 322 327 329 328 327 326 326 327 325 326 327 325 325 326 326 328 329 326 326 327 330 329 327 329 329 330 331 327 325 327 327 328 327 327 329 324 324 329 325 325 326 325 345 359 339 329 335 336 338 341 335 331 328 327 330 330 330 334 336 334 335 338 340 339 337 339 342 340 337 335 332 329 328 328 326 326 325 323 322 321 320 319 318 318 318
311 317 318 319 325 327 325 325 325 327 330 329 327 326 324 325 326 326 329 331 330 329 326 329 334 334 330 327 332 337 331 326 327 327 330 331 331 336 333 325 325 324 326 333 331 334 344 342 337 332 328 335 341 333 331 331 326 326 328 328 331 335 339 340 338 337 338 342 347 344 339 338 335 330 328 327 326 326 326 324 323 322 321 320 319 318 318 318
311 319 322 321 323 324 323 324 326 329 331 329 328 328 324 323 325 325 326 329 333 333 326 326 334 336 330 327 330 335 334 337 339 332 332 333 331 338 338 329 327 326 329 339 337 330 333 336 341 337 328 336 346 336 328 329 326 325 327 329 329 330 337 340 334 334 338 338 341 341 336 338 335 328 326 327 326 326 325 324 323 322 320 320 319 319 319 318
309 315 320 321 323 324 324 326 326 328 332 331 331 331 327 324 326 326 328 328 329 331 329 328 333 335 333 332 332 331 329 333 336 331 331 333 329 334 337 331 330 331 335 340 337 337 339 333 336 339 330 336 349 337 328 333 330 326 330 333 330 330 337 339 336 341 343 339 338 336 335 338 335 327 326 327 326 325 325 323 323 322 321 320 320 320 320 320
310 311 318 322 323 324 325 327 326 328 333 332 330 330 328 326 325 323 327 329 325 326 327 327 329 332 334 334 332 330 325 325 327 324 325 327 324 327 329 327 328 332 340 342 336 341 349 339 336 338 329 334 348 342 338 342 331 327 338 339 331 334 340 336 333 338 340 340 340 337 337 340 333 326 327 327 325 325 325 324 324 322 321 320 321 321 321 321
Wind_Speed
23 24 25 26 26 27 28 29 28 24 20 18 16 15 12 9 6 3 1 3 4 5 4 3 5 8 10 12 13 13 11 8 7 6 3 0 2 4 5 7 5 4 6 6 7 5 3 3 1 5 10 11 9 6 7 2 8 10 4 4 4 3 2 2 3 6 7 4 4 8 13 13 7 10 14 16 21 21 20 21 19 16 14 12 10 8 10 10
23 23 24 26 26 27 28 29 28 24 20 18 16 14 12 9 5 2 1 3 4 4 3 3 6 8 10 12 14 13 10 8 7 6 2 2 4 4 5 5 3 6 6 5 2 2 2 1 3 6 9 10 7 2 3 9 15 8 3 5 4 2 4 7 9 9 9 7 9 12 15 15 10 9 11 10 12 16 15 14 16 15 13 12 10 10 11 11
22 22 23 25 25 26 28 29 28 23 20 17 15 14 11 8 4 1 1 3 4 3 1 4 6 9 10 13 15 12 10 8 8 6 2 2 4 3 6 5 6 5 2 1 4 5 7 8 7 6 7 9 4 6 7 13 17 10 8 5 2 5 8 13 16 14 15 18 18 17 17 17 12 11 12 11 11 12 7 6 11 12 12 12 11 11 11 11
21 22 22 24 24 25 27 28 27 23 20 17 14 12 10 7 4 1 1 3 2 1 2 5 7 10 11 14 14 12 11 7 6 6 3 2 3 8 11 9 6 3 2 5 6 9 12 9 4 4 7 8 4 18 16 15 14 7 8 4 4 10 9 13 19 19 23 24 21 19 20 17 13 12 10 10 10 7 5 7 9 11 13 13 12 11 11 13
21 21 22 23 23 24 26 27 26 22 19 16 13 11 9 6 4 2 1 2 1 1 4 6 9 12 12 14 13 12 10 4 5 7 4 4 9 14 11 7 4 3 7 8 9 14 14 9 11 5 3 2 8 19 16 20 20 8 7 9 9 12 10 14 22 24 24 23 21 18 15 13 15 15 11 10 8 3 7 10 11 12 13 14 14 12 12 14
21 21 21 22 22 23 24 25 25 22 19 16 13 10 8 6 3 2 2 1 0 2 5 7 10 12 12 13 11 11 6 2 6 7 3 4 13 15 9 5 5 5 6 8 12 18 12 13 16 9 5 6 12 15 12 19 24 11 6 13 16 15 14 16 23 23 23 22 18 15 14 17 19 15 12 15 12 9 11 11 12 13 14 15 15 15 15 16
21 21 21 21 21 22 23 24 24 21 18 15 12 10 7 4 2 2 2 1 2 4 7 9 11 11 12 12 10 10 8 6 5 2 3 10 16 13 7 5 5 2 4 10 15 18 13 11 19 18 10 8 14 16 15 20 23 15 6 12 18 20 20 22 25 24 24 23 18 19 19 17 16 10 10 14 14 13 13 12 13 14 14 16 16 17 17 17
21 21 21 21 20 21 22 22 22 20 17 14 11 8 6 3 2 2 1 2 4 6 8 10 10 10 11 11 10 11 9 5 2 7 10 14 14 11 7 5 1 5 6 11 15 17 13 7 16 17 9 9 16 16 19 21 17 13 9 13 18 21 24 26 28 26 25 22 22 24 19 17 18 14 11 11 12 14 15 15 15 15 15 16 17 18 19 18
21 21 21 20 20 20 20 21 21 19 16 13 10 7 4 2 2 1 2 4 6 7 9 9 9 9 9 9 10 10 5 6 10 12 13 13 11 9 6 3 3 6 9 16 20 18 9 5 13 15 11 14 18 14 17 15 8 11 15 16 17 18 22 25 25 24 23 21 24 22 16 17 18 13 10 9 12 13 16 17 15 16 16 16 17 18 19 18
21 21 21 20 19 19 20 20 19 17 14 10 7 5 3 2 1 2 3 5 7 8 9 9 8 8 9 8 7 5 3 8 11 11 11 11 9 8 6 2 2 7 14 19 16 8 5 12 21 24 20 18 17 13 16 15 12 19 21 18 19 19 20 24 24 24 23 19 22 18 10 13 11 6 5 7 12 11 14 17 16 18 17 17 16 17 17 17
20 20 20 20 18 18 18 19 18 16 12 8 5 3 2 1 2 4 5 7 8 9 9 9 9 9 9 10 8 2 5 8 8 7 8 9 8 6 5 1 4 10 16 15 10 13 17 18 22 22 16 18 19 17 19 23 23 25 23 16 17 19 18 23 22 22 20 14 23 23 12 13 10 5 5 9 12 9 14 17 16 18 18 18 18 17 17 17
19 20 20 19 17 17 17 18 17 14 10 6 3 2 1 2 4 5 7 8 9 10 11 10 11 10 11 12 8 1 6 7 5 5 6 7 5 3 3 2 8 12 13 14 16 15 16 15 19 18 16 21 16 12 17 26 27 23 19 10 8 11 10 14 16 17 17 14 20 21 12 10 8 5 7 11 11 9 16 17 15 16 16 18 18 18 18 17
19 19 19 19 17 16 17 17 15 12 8 4 1 1 3 4 6 7 8 8 9 10 11 10 11 11 13 12 3 4 6 8 4 5 5 4 3 2 5 9 11 10 6 12 19 17 15 13 19 22 21 20 11 12 19 23 23 16 10 5 4 5 3 7 12 13 13 9 10 7 4 4 6 4 8 10 12 14 17 16 16 17 16 17 16 16 16 15
19 19 19 18 16 15 16 16 14 10 6 2 1 3 4 6 7 8 8 9 9 10 9 8 9 9 11 9 3 4 4 6 4 2 3 4 3 5 11 10 9 9 6 10 16 17 17 18 23 23 21 21 18 19 16 12 12 7 4 3 3 4 3 4 9 12 8 4 12 12 4 2 2 1 5 8 12 15 16 14 16 18 18 18 16 15 14 14
19 19 18 18 16 14 14 15 13 8 5 3 3 5 6 7 8 8 9 9 9 8 7 6 6 7 10 7 3 4 3 6 7 5 4 4 3 6 10 9 9 12 10 10 13 13 13 19 24 19 15 20 20 14 6 4 4 3 4 2 3 4 2 7 9 9 6 3 14 14 4 2 1 1 3 7 12 15 15 13 14 16 16 16 15 15 14 14
19 19 18 17 15 13 13 14 12 7 4 4 4 5 6 6 7 7 8 9 8 6 4 5 5 5 7 3 3 6 7 9 7 6 6 5 4 2 7 9 7 9 9 11 12 10 11 16 19 15 11 13 11 6 4 4 4 4 4 2 1 5 3 4 10 11 7 4 10 9 5 3 1 3 4 7 12 14 14 13 13 14 15 15 14 14 13 12
19 19 18 17 15 12 12 12 11 7 5 6 6 6 6 7 7 7 7 8 7 6 6 6 4 6 4 2 4 7 12 12 9 9 8 6 5 3 8 10 10 10 9 11 10 10 11 11 10 8 7 6 4 5 6 3 2 3 3 3 2 4 3 2 5 11 12 10 9 9 7 4 3 4 8 10 13 13 13 13 13 13 14 14 13 13 12 11
20 18 17 17 14 11 10 11 11 7 6 7 9 10 11 9 6 5 6 8 9 8 7 6 4 3 1 4 5 8 11 10 10 10 8 7 6 6 9 11 11 10 9 9 8 8 7 6 5 3 5 5 3 6 5 2 4 3 3 4 3 4 5 4 1 3 9 11 8 7 7 6 6 2 4 9 13 11 13 14 12 12 12 12 12 12 11 11
20 18 17 16 14 11 9 10 10 8 6 7 11 12 14 13 8 6 8 11 10 7 4 5 4 0 3 7 5 8 7 7 8 10 10 8 8 9 9 10 9 8 7 5 4 5 5 5 5 4 4 3 3 5 6 5 6 7 6 6 6 5 5 4 2 1 5 9 7 7 7 6 6 2 2 7 12 12 13 13 13 12 12 12 11 11 11 10
19 18 17 15 13 10 7 8 9 9 7 8 14 15 17 19 12 8 14 16 12 9 10 11 12 14 16 12 5 10 7 8 10 9 8 7 8 11 10 9 6 6 4 3 2 3 5 4 3 4 5 6 5 6 7 6 7 8 7 7 7 7 5 6 5 4 6 7 4 6 7 6 5 2 3 12 13 12 13 12 12 13 12 12 11 11 10 10
19 17 16 15 13 9 6 7 7 7 6 11 19 19 17 17 9 8 17 17 13 12 15 17 18 22 22 16 9 12 8 10 13 6 5 8 12 11 6 4 4 4 1 3 5 2 4 5 4 6 8 9 7 7 9 8 7 7 7 7 6 5 5 5 5 4 5 6 3 6 8 7 5 2 3 12 12 9 11 12 12 13 12 11 10 10 9 9
21 17 16 14 12 7 5 6 5 6 6 11 21 21 18 17 10 10 12 12 16 16 16 19 20 20 23 23 14 16 10 7 10 7 9 13 12 6 2 3 3 1 2 3 6 3 5 3 6 8 10 10 7 7 9 9 8 6 5 6 5 4 4 4 5 5 5 4 3 6 8 5 4 2 1 6 9 8 10 12 12 12 10 10 9 9 10 10
23 19 16 14 11 7 4 5 5 7 6 10 19 21 19 18 14 12 9 8 14 19 19 18 19 22 23 18 11 18 12 8 9 9 15 15 10 9 4 3 2 2 0 2 4 3 3 3 8 11 12 11 7 6 9 8 6 5 4 5 4 4 4 3 4 5 4 4 5 6 6 3 3 2 2 2 9 10 11 11 10 9 9 10 10 10 11 11
24 21 16 14 11 6 4 6 7 7 6 8 13 15 15 15 15 13 9 5 7 15 19 17 18 23 19 9 10 13 10 9 11 14 18 15 11 8 6 5 4 1 2 4 7 5 2 6 13 13 9 10 9 7 8 7 4 5 4 4 5 4 4 5 5 5 6 4 6 7 6 3 3 3 3 2 7 10 12 12 10 10 10 10 10 11 11 11
24 22 17 15 12 6 3 6 7 7 6 6 7 8 10 12 13 11 8 3 3 9 13 12 13 15 11 6 11 10 4 4 12 21 21 15 13 7 5 6 5 2 5 5 8 4 3 11 19 12 6 10 9 6 6 6 4 4 3 3 5 7 7 8 8 6 5 1 4 4 5 2 4 2 2 2 4 7 9 12 11 10 10 10 10 10 10 11
24 22 19 16 13 7 3 6 6 7 6 4 5 7 8 10 12 10 5 3 2 5 4 4 4 5 5 8 12 8 1 2 11 23 22 16 12 7 4 4 3 4 5 3 4 2 3 11 15 11 8 9 7 4 5 6 6 3 2 2 4 7 10 11 8 5 3 3 4 2 4 1 3 1 3 1 3 4 6 9 10 11 11 11 11 10 10 12
23 22 19 16 14 10 4 5 7 7 6 6 8 7 7 9 12 8 3 5 3 4 1 2 2 2 4 8 11 8 1 3 8 17 21 18 14 10 7 3 1 4 4 4 2 1 5 7 7 9 10 7 5 4 3 7 8 1 3 7 6 4 8 11 8 3 3 2 2 2 4 3 1 3 3 2 4 3 4 5 8 12 12 12 12 11 12 13
23 22 20 16 13 12 8 7 7 6 5 8 10 9 8 10 11 5 4 4 4 3 1 3 3 3 5 7 8 7 3 1 4 11 19 20 15 11 7 5 5 4 3 7 2 4 6 7 6 8 9 6 5 6 7 8 8 3 7 10 6 5 6 7 5 2 1 3 2 2 3 4 2 3 2 3 4 4 5 4 7 12 13 13 14 13 14 13
22 21 20 17 13 12 11 8 7 5 6 8 9 9 8 9 8 4 5 2 3 2 1 3 3 5 7 4 5 8 5 1 4 11 19 19 15 10 6 7 8 4 4 7 5 4 6 12 14 9 7 6 6 10 13 12 8 9 13 8 3 3 3 3 4 2 3 4 1 5 3 4 2 3 2 3 4 6 6 5 8 15 17 16 17 17 16 13
22 21 20 19 14 12 12 9 6 6 8 9 9 8 7 6 4 4 2 2 3 2 2 2 2 4 4 0 4 7 4 2 4 9 13 12 12 11 6 7 5 3 3 4 4 4 4 12 15 7 5 8 12 14 14 15 16 15 11 5 3 3 3 3 3 3 3 2 4 8 5 5 1 3 4 4 4 7 7 5 9 15 18 19 19 19 18 16
20 19 20 20 16 13 12 8 5 6 7 8 8 6 5 4 4 4 2 3 2 2 2 0 2 3 4 2 2 4 2 3 5 5 5 5 6 5 4 3 2 3 2 1 2 0 3 8 7 6 14 16 14 8 6 14 19 12 5 3 3 3 4 3 3 4 3 3 4 7 5 4 1 4 6 6 5 9 11 8 10 14 19 20 20 20 20 18
19 19 19 20 19 15 12 6 4 6 7 6 5 3 3 3 2 1 3 2 2 3 3 2 4 3 3 4 4 4 2 3 4 4 4 2 2 3 2 3 3 3 2 2 3 3 1 4 2 7 20 21 13 6 4 6 8 5 4 5 4 2 3 2 2 1 2 4 3 6 5 2 2 5 7 9 7 12 15 14 17 20 22 22 21 21 20 18
18 19 19 19 20 16 11 6 5 6 7 5 1 3 5 4 2 5 3 2 2 4 1 1 4 5 4 3 4 4 3 4 5 3 4 3 2 4 5 4 4 3 2 3 3 4 2 4 2 6 12 16 14 10 4 3 3 4 6 6 4 3 2 0 2 1 1 2 1 3 4 1 3 3 6 10 11 18 21 21 24 25 25 25 23 22 21 18
18 20 21 20 19 15 9 5 4 5 5 4 2 5 5 2 4 4 3 4 3 4 3 1 4 5 3 3 4 3 3 4 5 3 4 2 2 2 5 4 3 2 2 2 2 4 2 3 3 6 9 10 11 13 13 9 7 6 5 5 4 4 4 3 3 2 2 1 2 3 2 2 2 3 7 13 17 22 24 23 25 25 24 25 24 24 22 20
18 20 22 21 18 13 7 5 6 5 5 4 4 5 3 4 4 3 3 4 3 3 4 3 5 5 3 4 4 3 4 3 3 3 3 3 4 4 4 4 4 3 3 3 1 2 6 4 7 6 15 16 9 11 15 11 5 5 3 4 2 4 4 3 2 4 4 2 1 1 1 3 2 2 6 14 17 20 22 22 22 21 21 25 26 25 24 21
20 20 20 21 16 9 7 8 8 6 8 7 5 2 5 4 3 3 3 3 1 2 5 3 2 4 4 4 3 3 5 5 3 1 1 2 4 5 4 3 4 5 4 4 2 1 4 3 5 2 14 19 15 13 14 11 6 2 2 3 4 4 7 5 1 1 5 4 1 1 1 0 2 1 4 10 12 13 15 18 21 23 25 28 28 27 25 23
22 21 21 20 13 8 10 10 8 8 9 8 4 3 5 4 5 5 4 5 4 5 5 4 2 4 4 3 3 3 3 4 3 1 0 2 2 2 2 2 1 5 6 5 3 3 4 1 5 2 8 14 21 22 14 10 9 5 3 5 2 3 4 5 3 2 4 2 2 2 3 4 3 1 4 9 11 10 11 15 21 25 27 27 27 27 25 22
23 25 22 14 7 11 14 10 8 10 9 6 2 4 3 4 5 6 6 6 7 5 3 3 4 5 5 4 4 3 4 4 3 1 2 0 1 2 1 2 3 1 5 6 2 2 4 1 6 3 5 6 12 15 7 7 6 5 4 5 4 2 0 2 3 1 2 2 2 2 3 5 4 4 8 12 13 11 11 13 17 21 24 26 26 26 25 21
23 22 16 8 3 14 16 12 10 11 7 4 2 3 3 4 8 12 12 8 5 3 2 4 3 2 4 5 4 2 5 6 3 2 3 1 1 2 1 1 3 5 2 6 4 1 3 4 3 5 1 5 4 3 4 5 3 2 3 3 3 3 3 3 3 3 4 3 2 1 2 4 5 6 12 15 14 14 13 12 14 20 25 27 27 27 26 22
20 15 10 7 3 14 16 13 12 9 5 2 4 3 3 4 8 14 16 10 5 4 4 4 2 1 3 4 3 2 4 5 4 4 2 2 3 3 2 2 1 3 5 8 5 1 3 4 2 5 4 4 2 2 5 6 3 0 2 2 2 1 2 2 1 2 4 4 3 2 2 6 5 6 12 16 15 15 16 14 15 22 27 28 30 29 27 24
15 8 7 5 6 15 17 14 9 4 2 2 3 2 4 5 7 12 16 14 10 9 10 7 3 3 4 3 4 3 3 2 3 3 1 2 3 2 5 6 4 2 4 7 4 2 2 3 3 2 3 2 4 6 5 7 7 5 4 5 4 3 3 3 0 2 2 4 4 4 2 6 5 6 11 14 14 16 21 21 19 24 29 29 31 30 27 24
10 5 5 2 8 15 20 11 3 3 3 2 3 4 6 8 8 11 15 15 12 11 12 7 4 4 4 3 3 2 2 2 2 3 2 4 4 3 6 8 7 7 6 3 1 2 3 4 4 0 1 3 7 7 4 4 6 5 3 3 4 3 5 5 3 3 1 3 2 3 1 5 5 6 12 16 18 22 27 27 24 26 30 30 30 30 26 22
9 10 9 3 2 8 15 5 2 2 2 3 6 8 10 9 7 8 9 9 9 6 4 3 3 3 3 2 2 1 2 2 1 3 3 3 5 7 7 8 12 9 6 2 2 1 2 4 4 1 4 4 6 5 4 3 5 5 1 0 3 3 3 5 5 3 3 3 2 3 0 5 5 6 15 21 24 25 27 29 29 27 28 29 31 29 26 22
12 16 13 8 4 3 6 3 2 3 3 4 4 7 11 11 9 9 7 6 7 2 2 3 3 4 3 2 2 2 3 3 1 1 2 1 3 8 7 10 13 5 2 3 3 1 1 1 3 3 4 5 6 6 6 6 4 1 3 3 2 4 5 4 2 3 3 3 5 4 3 6 4 3 12 18 20 21 23 28 32 30 29 31 33 31 27 24
9 11 11 8 8 7 5 4 4 2 2 3 3 5 7 8 10 13 11 10 12 7 1 4 6 5 5 2 2 1 3 4 1 1 1 1 2 3 5 12 13 5 3 9 9 5 3 2 3 5 3 2 2 2 3 2 2 1 2 3 1 4 7 4 2 4 2 3 5 5 4 5 3 3 10 13 14 16 18 25 29 31 33 35 34 32 29 27
4 3 7 6 7 10 10 9 5 2 2 1 2 4 5 4 8 14 14 12 14 11 5 5 7 5 2 3 2 1 0 2 2 1 1 1 2 2 6 14 14 11 11 13 10 6 3 2 3 6 6 6 6 6 5 3 1 2 3 2 1 3 7 6 4 2 3 4 2 4 6 4 1 4 9 12 13 13 16 23 26 29 33 35 35 33 30 28
2 2 2 5 5 6 6 7 4 1 3 2 1 3 4 3 4 7 9 8 8 7 4 5 5 4 3 3 3 1 2 1 3 2 0 2 1 1 8 15 15 16 16 10 5 5 5 3 1 4 4 6 7 6 4 2 2 4 4 4 4 2 7 7 3 4 5 6 2 7 5 7 6 7 10 12 12 12 17 25 29 31 34 34 34 33 30 27
3 3 4 5 3 2 1 5 8 6 5 4 3 3 5 6 6 4 6 6 4 4 2 3 5 6 6 7 4 2 3 2 2 2 0 0 2 4 4 6 7 10 12 7 4 5 6 1 3 2 2 5 5 5 4 2 3 5 5 6 6 4 7 6 5 6 8 7 6 7 7 9 8 9 11 15 18 21 25 30 33 34 35 34 34 33 30 28
4 5 7 6 4 4 7 10 12 9 6 5 4 4 5 6 7 7 6 3 2 2 4 2 6 7 7 5 5 3 4 4 3 3 1 2 3 3 2 3 5 5 5 5 3 4 5 1 3 2 2 6 6 6 6 4 4 5 6 8 7 6 7 5 4 6 7 5 7 8 10 9 7 8 13 17 24 28 29 31 33 34 34 35 35 34 31 29
2 2 6 7 6 9 11 10 8 6 4 4 3 4 5 6 8 9 7 5 2 2 2 4 7 8 6 4 6 5 6 8 7 5 4 3 2 2 1 2 2 3 5 4 2 3 4 2 3 4 3 6 6 5 6 6 5 6 7 8 6 6 6 4 4 5 4 2 3 7 9 7 5 8 14 18 24 27 28 30 32 34 36 36 35 34 31 28
5 4 7 8 5 6 7 6 5 4 3 3 3 4 4 6 9 8 5 8 11 5 2 4 8 8 3 1 5 5 4 7 9 10 11 8 5 5 3 3 6 3 3 2 2 3 4 2 1 5 4 5 6 4 6 4 1 2 5 6 5 7 5 4 4 4 5 5 4 6 6 6 4 11 17 20 25 27 28 30 31 32 36 38 36 34 32 28
7 7 8 7 4 4 3 4 4 3 3 2 3 5 5 7 10 6 4 7 11 11 8 5 5 6 4 2 3 4 2 6 9 9 11 10 7 6 8 11 13 10 3 1 2 2 4 3 1 4 3 5 6 5 5 3 4 3 5 4 5 4 3 4 3 2 5 8 7 5 6 6 7 15 16 15 20 24 28 32 34 34 35 36 36 35 32 29
Wind_Direction
358 358 357 358 359 358 357 358 358 358 359 359 359 355 350 343 336 329 269 214 199 211 229 278 320 334 332 330 327 325 322 312 292 276 262 289 353 341 334 346 0 118 124 126 137 149 160 154 93 344 314 297 284 303 353 34 117 102 84 73 76 69 70 103 115 136 154 156 172 151 115 107 105 89 83 68 71 77 76 77 81 82 80 82 91 94 98 109
357 358 357 357 358 358 357 358 359 358 359 0 1 358 354 352 350 348 234 196 195 205 231 305 333 333 331 330 328 329 327 311 282 266 264 346 331 336 354 6 73 113 103 105 97 329 290 302 354 340 317 306 293 265 37 87 95 81 78 78 52 74 85 93 107 124 137 125 112 116 109 101 95 91 90 76 64 72 75 74 83 83 79 86 94 100 105 112
357 357 357 357 358 358 357 358 358 357 359 0 3 1 0 2 6 12 212 182 192 203 269 328 336 331 331 329 328 332 333 317 291 292 323 318 321 31 61 85 116 114 107 40 358 328 303 305 316 310 295 291 320 80 84 86 82 74 87 75 52 102 96 100 107 109 107 100 91 91 92 85 84 89 88 94 75 60 65 75 90 91 90 94 97 105 113 117
356 356 357 357 357 358 358 358 357 357 359 0 4 4 5 7 15 21 183 174 190 204 329 336 337 333 332 331 333 337 336 333 322 337 359 349 53 92 105 122 131 119 12 16 2 344 335 335 350 294 270 260 65 73 73 83 84 75 86 100 120 106 100 104 103 98 97 96 94 93 89 81 83 91 93 104 87 53 68 86 97 100 97 99 101 105 111 113
354 355 356 356 357 358 357 358 357 357 359 360 3 4 8 8 14 29 152 162 185 334 339 339 340 336 336 336 337 337 343 2 349 360 15 42 94 116 126 135 122 58 32 23 356 357 7 67 105 128 195 193 81 75 77 91 96 87 77 93 97 98 100 101 99 96 97 97 94 90 88 94 92 83 87 103 98 104 112 102 102 99 95 97 98 101 106 108
353 353 355 356 356 357 357 358 357 357 359 360 2 4 6 5 18 59 134 137 356 350 345 346 347 343 341 339 337 338 349 354 333 345 355 92 119 133 139 130 92 52 34 7 354 6 26 101 104 97 102 78 77 84 96 100 100 96 73 86 89 94 97 98 99 97 98 94 89 90 95 103 94 78 80 91 97 111 117 114 106 97 94 92 92 98 102 105
351 351 353 354 355 356 356 359 358 357 359 360 1 0 2 11 50 92 111 51 354 349 350 351 350 346 341 339 338 335 325 309 320 338 138 130 137 146 145 128 96 25 337 347 358 7 14 85 93 88 86 80 88 95 103 99 98 102 93 90 94 95 94 97 102 102 101 98 101 107 102 97 95 94 91 89 97 108 113 114 106 99 95 93 93 96 98 103
348 349 350 351 353 354 355 358 359 357 358 359 1 2 9 36 87 100 73 6 349 351 353 353 351 346 342 343 342 338 332 334 88 130 136 139 146 150 153 153 129 317 330 349 355 354 352 66 96 89 82 93 103 107 109 99 89 96 104 101 101 99 99 102 104 104 102 103 109 105 96 94 99 101 93 94 106 111 111 107 103 100 95 94 95 95 95 101
346 347 347 350 352 351 353 357 360 359 357 358 7 17 30 60 94 65 3 347 350 354 351 348 345 341 339 339 342 346 9 89 118 131 135 139 143 146 162 184 311 336 1 355 349 340 326 105 96 92 96 102 108 114 110 103 90 103 108 108 106 103 106 106 104 105 104 106 107 101 98 103 105 96 78 93 113 114 110 104 101 99 96 98 98 97 97 99
345 345 345 347 350 350 350 354 360 0 356 1 18 40 57 77 50 350 343 342 346 348 342 340 337 332 333 331 339 356 93 116 120 134 132 131 137 142 158 172 341 1 8 359 1 24 123 120 97 97 101 100 103 101 97 102 109 110 107 106 108 109 111 110 110 111 109 108 104 99 98 95 96 97 85 114 120 118 108 99 97 95 95 102 101 97 96 96
343 344 344 345 348 348 347 352 358 359 359 10 36 67 82 2 327 336 339 339 340 340 334 331 325 320 327 321 316 315 160 140 122 133 131 125 133 146 164 189 10 15 12 19 57 99 116 120 107 100 98 99 100 92 97 109 112 113 110 104 104 109 113 112 116 118 111 111 103 93 75 65 65 82 117 130 124 121 109 101 100 99 96 99 99 96 95 93
343 343 342 344 346 345 345 349 354 359 2 17 57 87 31 315 319 331 335 333 334 334 331 332 330 328 331 321 310 242 168 165 123 110 133 131 132 167 167 20 18 12 14 58 86 99 107 116 115 112 111 109 104 93 106 114 112 111 110 104 99 101 107 113 122 125 120 134 116 91 62 42 35 80 121 127 124 119 111 105 104 107 106 102 99 96 92 89
342 341 342 343 345 343 344 347 351 357 1 18 77 332 325 319 316 324 330 329 330 332 338 345 343 338 332 329 351 124 164 169 134 89 128 150 152 132 55 23 15 7 9 78 86 97 103 106 112 114 114 109 105 113 116 112 108 106 99 90 89 64 39 112 128 124 117 156 144 86 60 45 8 68 120 129 126 117 109 108 107 107 110 108 104 100 96 95
341 341 341 343 344 342 342 345 347 349 352 353 306 309 317 317 315 322 327 326 329 337 349 356 350 344 334 337 83 138 183 179 191 164 134 154 144 71 56 43 43 68 105 87 77 92 101 108 111 105 106 111 113 114 108 96 95 96 76 45 58 70 7 60 109 113 99 121 110 92 89 96 355 75 125 132 129 120 110 107 110 110 111 109 109 108 105 106
341 340 341 342 344 340 339 344 344 341 334 304 299 313 322 324 319 321 325 325 331 342 353 345 335 340 338 336 125 137 204 210 214 211 178 165 155 67 80 99 86 85 102 92 74 78 97 112 109 98 104 117 115 106 79 45 56 46 78 20 0 85 63 21 49 93 117 98 88 91 98 93 137 187 124 128 129 122 109 104 111 115 117 114 112 110 107 109
339 339 340 341 343 340 337 342 340 330 308 301 314 321 327 329 325 326 321 321 331 338 326 318 333 340 337 329 146 140 184 210 208 207 206 174 170 81 110 128 121 101 92 91 78 71 95 104 98 91 101 114 108 90 62 45 17 7 85 134 33 73 73 32 28 43 86 74 49 73 122 121 159 191 162 138 128 122 110 105 114 120 123 120 117 115 111 111
338 338 339 340 343 340 335 339 335 316 295 307 323 333 338 322 316 324 316 318 326 314 297 290 308 320 309 174 167 171 189 205 200 207 215 171 163 182 143 126 127 126 97 90 81 75 93 93 89 90 82 85 83 84 76 47 11 1 57 106 109 85 83 92 27 27 58 76 56 67 98 97 103 169 173 144 125 120 111 113 123 127 128 125 121 118 115 112
336 337 338 340 343 340 332 334 331 313 294 311 327 341 353 338 315 326 332 330 315 296 296 273 261 328 224 187 188 186 195 201 197 206 205 180 189 203 164 128 119 121 99 92 77 71 81 68 83 91 38 40 48 83 102 174 164 141 108 102 91 85 80 87 105 22 57 76 80 78 81 90 93 114 202 147 130 121 115 119 127 131 134 133 130 124 119 114
335 336 338 338 343 341 328 329 331 319 304 321 338 354 16 17 10 7 348 334 318 299 301 269 236 235 301 287 231 191 196 189 196 212 205 202 217 205 162 131 119 112 106 98 59 77 95 60 68 75 50 76 99 115 140 170 148 132 123 113 101 94 92 97 117 156 94 82 78 87 93 104 111 135 221 144 134 126 122 124 124 131 137 137 135 127 119 112
337 335 337 337 342 342 323 324 331 325 322 345 358 15 27 18 11 1 339 324 319 317 306 290 279 283 290 300 240 199 208 203 207 212 205 199 179 158 131 124 111 85 102 123 83 108 106 67 80 123 129 136 138 128 120 114 116 114 105 102 105 104 111 123 125 144 123 93 69 90 97 91 100 155 143 122 122 120 121 122 122 130 135 135 129 121 115 108
343 335 335 337 340 342 320 317 327 324 334 6 14 25 27 13 4 342 334 318 299 294 292 287 285 284 282 288 252 198 188 205 206 191 177 161 143 131 104 118 94 57 230 129 102 110 91 91 155 166 151 142 133 116 104 99 98 98 102 104 104 108 112 110 117 128 99 80 79 85 82 73 64 354 113 116 116 116 122 121 127 133 132 133 129 122 116 104
347 338 335 336 338 339 312 305 311 305 329 16 26 33 27 15 2 327 327 308 286 274 275 280 284 286 282 286 259 195 173 195 203 174 158 152 147 165 126 98 107 123 251 100 85 42 53 113 193 169 141 127 117 105 100 99 98 94 101 103 102 121 108 70 83 101 80 76 93 81 79 71 54 8 17 119 124 126 128 127 134 140 135 133 128 121 116 108
348 342 335 332 335 335 302 288 284 291 326 18 27 27 15 5 356 331 313 295 289 281 281 285 288 290 285 280 228 191 182 193 205 169 155 151 162 201 184 121 155 160 326 96 109 93 70 201 188 153 129 113 96 89 89 86 87 83 92 113 131 151 123 92 110 113 89 98 119 102 88 53 31 46 351 99 130 126 124 129 134 140 135 127 122 116 114 113
346 344 337 329 331 330 294 275 272 292 338 16 14 14 12 5 3 350 328 297 286 287 288 286 284 287 283 256 196 191 183 197 204 170 159 155 155 189 197 164 154 134 217 167 131 131 199 192 159 138 120 114 107 99 97 92 79 63 74 127 151 147 122 120 129 108 69 82 131 110 75 7 358 47 2 38 116 115 117 123 121 124 122 115 117 114 109 110
343 343 339 329 324 327 290 258 266 303 342 13 351 353 14 12 7 358 342 330 285 290 291 284 276 277 276 224 197 197 184 205 190 173 173 166 151 171 208 172 155 210 218 170 130 127 233 172 150 132 111 118 114 120 132 124 102 78 100 181 159 139 126 119 119 102 68 36 204 119 72 326 319 17 303 324 94 109 114 119 118 121 123 117 116 115 111 112
340 340 339 331 319 324 278 246 285 317 328 344 312 323 355 5 6 352 346 36 328 286 289 284 256 247 246 213 201 198 259 274 181 177 186 183 164 172 208 173 164 208 203 160 130 114 206 173 149 130 130 122 104 130 156 126 101 83 156 136 103 127 137 137 133 115 114 209 227 140 108 226 302 294 248 262 115 131 122 121 126 126 126 125 124 123 123 121
337 336 336 332 318 318 304 267 311 328 328 320 300 309 336 348 354 340 359 44 313 265 246 244 214 196 216 204 194 178 182 264 183 182 193 190 174 176 202 199 154 215 180 117 110 199 183 172 139 126 130 121 110 142 177 127 111 122 168 122 105 138 154 153 148 132 161 179 356 55 113 118 281 256 227 158 132 147 142 139 141 137 134 134 135 131 126 122
334 331 330 331 317 310 310 296 312 327 324 315 303 307 321 333 343 351 76 64 274 266 309 222 209 213 221 213 206 197 217 256 161 189 196 186 177 180 204 201 180 220 182 129 152 236 179 166 169 143 134 150 161 161 159 125 105 141 152 136 146 179 175 157 142 119 111 86 21 312 109 94 282 258 207 154 151 166 173 180 165 156 150 144 143 137 128 124
331 328 325 327 314 299 296 298 312 313 292 291 296 305 318 330 344 27 83 95 254 291 336 197 190 218 223 234 244 239 256 343 156 188 185 180 189 202 221 219 195 187 189 166 168 210 193 184 183 152 135 173 165 158 153 125 113 149 146 135 134 145 144 127 118 100 52 66 201 228 147 102 270 252 193 187 184 182 185 183 171 165 160 155 151 145 139 138
326 325 320 320 313 293 283 290 299 292 288 288 288 307 333 345 17 57 62 256 255 254 194 174 204 216 198 143 292 260 260 272 226 198 185 186 203 215 240 243 213 134 178 196 169 188 178 175 179 154 144 160 140 150 155 135 138 145 136 127 100 70 56 70 69 79 72 355 235 215 183 122 193 249 203 207 195 173 170 167 168 166 163 161 157 152 150 150
323 321 316 315 309 291 279 280 267 272 300 306 296 314 347 2 61 90 198 249 285 261 216 195 258 209 165 156 268 268 265 269 252 208 197 209 205 222 294 275 241 54 66 109 121 211 97 141 178 142 136 133 118 124 132 132 140 136 121 127 106 26 17 36 357 41 95 274 248 203 186 113 130 245 213 214 195 162 165 167 167 168 169 169 164 157 155 153
322 316 311 309 302 286 269 265 258 268 295 309 309 338 34 37 46 164 235 300 336 248 218 191 236 230 161 170 225 241 229 243 244 198 182 184 164 203 238 203 186 47 55 160 82 51 125 176 201 116 133 134 115 88 72 119 130 104 113 121 95 52 17 32 315 12 167 257 255 174 164 121 244 238 197 196 183 166 172 171 168 171 172 172 167 160 157 154
321 313 307 300 294 282 258 254 264 261 279 287 305 56 75 80 229 229 244 287 248 239 242 121 226 224 137 140 240 234 214 234 246 221 184 164 141 219 243 218 164 102 157 187 93 83 312 300 1 102 136 143 127 118 133 173 163 142 148 144 120 115 95 176 244 282 197 260 326 123 130 145 283 273 190 180 173 172 175 174 173 174 172 171 168 163 160 156
322 313 305 296 289 276 249 236 239 238 263 253 137 78 86 129 238 242 242 249 244 265 294 279 226 223 157 179 238 213 188 246 247 204 179 145 112 237 270 255 195 159 131 113 97 140 146 297 238 165 168 169 150 153 167 167 165 181 171 145 144 145 149 184 198 187 173 201 333 17 72 161 214 256 189 165 163 169 173 176 177 175 172 168 165 162 161 158
324 314 304 297 288 266 231 204 206 214 225 197 106 79 142 199 242 245 240 239 230 267 270 236 205 214 221 230 250 216 181 237 262 197 180 170 166 198 234 232 201 168 100 90 281 162 137 199 243 192 167 170 171 167 160 141 148 206 169 115 175 181 145 129 164 171 146 125 318 325 214 202 194 238 166 151 157 166 170 173 172 169 165 159 158 161 162 160
325 314 304 297 284 248 207 194 189 199 200 162 99 111 195 210 214 195 229 233 193 329 319 306 195 188 238 257 280 260 207 225 260 182 217 230 199 199 211 227 193 157 131 130 192 205 118 202 275 136 156 172 174 166 159 151 150 184 172 185 223 170 124 106 115 40 81 102 241 220 179 223 52 39 155 151 157 164 165 163 158 155 153 152 156 160 162 161
328 320 309 294 272 213 184 185 180 192 187 143 116 208 206 222 215 203 257 297 326 350 347 315 238 180 218 239 252 258 210 231 260 139 281 299 251 239 249 268 230 173 169 140 164 206 133 206 288 128 158 189 175 164 169 173 146 119 196 207 173 88 86 97 106 17 54 117 256 247 171 166 146 175 181 165 166 168 162 152 149 152 152 153 158 160 162 165
331 326 318 303 251 188 173 171 175 180 166 121 136 224 208 226 226 219 253 303 336 358 358 278 228 180 190 207 236 240 171 205 268 149 150 334 263 279 305 307 356 58 172 138 110 226 124 96 288 235 152 169 159 153 176 206 163 132 178 170 117 96 355 90 115 138 130 153 261 255 205 194 192 187 175 174 177 172 161 151 151 156 156 156 158 160 163 165
334 330 329 354 158 181 172 163 171 166 140 102 194 225 234 251 261 259 266 293 316 313 281 247 222 173 188 199 214 198 177 198 211 158 160 134 242 290 338 247 357 12 87 121 122 217 101 112 276 289 113 103 94 118 184 224 254 15 81 119 126 140 159 154 145 149 142 154 209 192 211 233 226 193 176 178 180 170 163 160 160 163 161 158 159 162 164 163
336 331 324 358 129 179 172 163 168 154 120 163 198 223 263 269 276 273 273 275 258 240 254 247 226 216 226 223 220 187 191 199 172 163 170 151 207 255 253 192 52 23 45 70 94 87 47 101 192 304 348 76 95 214 181 186 215 33 97 179 218 100 117 149 142 121 124 139 170 148 208 252 242 190 177 177 177 171 167 165 164 164 162 161 163 163 163 162
337 331 303 353 121 168 173 166 172 159 126 208 204 234 272 275 283 285 283 276 260 251 251 244 219 215 223 236 243 208 177 164 159 162 156 167 190 229 222 202 174 129 70 53 57 109 84 107 152 305 8 82 223 233 194 177 176 170 171 191 191 144 119 117 347 292 113 128 166 156 202 265 249 177 176 177 175 173 168 164 162 164 163 162 165 164 163 162
330 303 269 66 107 165 172 167 191 183 156 211 220 233 266 276 276 279 285 285 275 255 242 231 202 214 223 213 219 202 132 128 171 168 166 192 187 192 213 193 138 112 108 77 8 150 134 106 94 47 224 207 243 256 239 193 162 155 181 184 162 132 121 131 190 244 111 101 135 120 141 276 265 176 170 174 175 173 169 165 160 162 163 162 163 164 162 159
312 292 265 207 98 176 174 171 304 199 187 248 235 246 260 267 276 280 286 285 277 262 234 237 202 195 234 211 174 136 103 116 184 186 181 197 196 208 204 142 113 101 95 94 304 11 69 82 82 325 295 294 298 305 318 7 80 100 318 300 147 155 139 145 172 171 123 131 131 83 210 272 277 189 170 171 173 170 168 165 160 160 163 163 162 161 159 158
310 300 276 220 204 208 182 182 212 209 258 257 249 262 260 261 267 271 277 272 267 258 132 260 241 187 207 206 145 145 130 124 315 255 186 182 211 226 209 138 129 127 95 151 182 103 85 94 91 65 1 343 337 344 342 348 30 97 291 303 181 136 105 107 122 90 86 189 153 125 217 256 279 190 163 163 165 163 163 163 160 159 160 160 159 158 158 158
324 306 285 242 225 240 237 202 176 188 237 248 284 272 257 268 264 254 258 267 270 266 187 272 272 226 201 159 97 37 123 138 202 280 202 222 299 257 182 145 142 142 140 153 148 125 131 141 109 114 126 175 213 266 268 278 326 313 310 321 321 114 116 130 113 83 97 201 148 141 212 255 297 134 149 155 155 154 155 155 157 159 158 158 158 158 159 157
354 299 295 294 257 247 245 235 219 198 197 216 316 269 232 244 262 256 254 261 267 263 263 290 284 265 219 135 114 282 275 114 126 108 120 187 281 298 143 138 133 127 131 139 134 114 97 77 110 136 158 177 188 219 225 173 135 271 275 293 288 124 119 113 101 122 178 160 168 217 193 173 165 139 148 156 152 148 148 148 151 155 156 156 157 158 159 159
337 244 316 345 310 276 261 254 253 231 220 207 213 265 260 256 280 269 242 237 247 240 264 298 270 247 228 168 128 227 244 86 109 139 147 183 248 18 127 129 124 127 128 116 107 110 82 34 117 143 176 203 201 216 228 162 185 229 242 260 260 168 121 112 140 202 155 124 233 254 181 155 185 174 158 159 153 148 152 153 155 156 156 156 156 157 160 162
250 279 337 346 313 283 321 313 316 314 285 262 233 252 279 279 288 278 236 244 245 193 190 303 265 245 223 179 150 203 213 137 137 177 117 56 5 29 83 97 88 117 124 92 55 105 104 138 209 152 280 268 242 241 254 234 224 238 238 245 253 202 157 154 191 187 144 141 218 227 175 176 192 176 168 168 163 160 160 159 158 157 156 156 156 158 162 165
256 284 306 317 298 285 306 311 308 301 274 256 244 233 246 258 265 262 247 265 307 204 181 252 279 270 248 191 140 156 192 163 170 228 215 103 72 62 55 33 31 47 86 82 48 80 99 235 236 116 352 299 283 273 281 280 262 271 265 253 247 210 180 161 164 170 152 163 199 181 175 199 202 177 178 174 164 158 154 155 156 155 157 158 158 161 165 168
250 281 307 321 310 293 303 307 302 302 286 254 241 237 236 239 254 263 247 207 235 303 183 224 267 273 264 219 151 165 209 183 164 189 184 118 89 128 149 169 137 21 26 75 39 32 89 213 253 90 55 303 294 289 288 283 258 261 280 275 239 194 180 146 136 154 139 147 187 156 168 226 240 161 156 155 152 148 148 154 158 159 160 160 160 164 169 172
238 262 298 310 302 283 299 309 303 312 309 252 228 242 236 229 238 251 256 220 210 203 176 226 259 273 314 57 154 173 231 209 185 179 170 166 191 182 163 183 159 110 28 84 81 30 81 149 260 68 58 287 289 306 295 304 320 285 302 289 219 179 181 179 161 163 154 143 119 119 159 243 227 139 139 149 152 151 154 159 161 163 164 164 165 169 174 177
245 270 274 263 265 279 290 309 311 295 282 283 300 300 294 274 259 249 275 253 219 214 238 252 263 274 309 5 202 197 225 223 206 188 175 183 208 179 150 165 161 143 140 115 86 103 110 111 148 91 83 273 288 313 306 6 44 317 280 244 207 185 165 151 137 165 161 143 134 157 205 226 167 142 143 154 158 157 162 166 167 168 168 168 170 174 178 182